STARLINK-32554, 62136

Orbit data source: Space-Track

STARLINK-32554, 62136 is a payload satellite owned by SpaceX/Seattle (US) in LEO that was launched on Wed, 27 Nov 2024 UTC via an FALCON 9 launch vehicle from the Air Force Eastern Test Range (AFETR). Payload-class satellites include a variety of spacecraft equipped with specific instruments for various scientific and technological missions. These include communications satellites like Starlink; space stations such as the ISS; scientific satellites like the Hubble; Earth observation satellites from companies like Planet Labs, Umbra, and HawkEye 360; GPS; miniature CubeSats for education and research; and military/defense satellites.

Loading next visibility...
Identifier
62136, 2024-222Y
Orbit
LEO
Country
Flag of USUS
Related business
Manufacturer
SpaceX/Seattle
Mission
Operational Commercial Communications
Bus & Motor
STARLINK V2M, Unknown motor
Mass
730 kg wet, ~700 kg dry
Launch date (UTC)
2024-11-27 (2 years ago)
Launch vehicle
FALCON 9
Launch site
Air Force Eastern Test Range (AFETR)
Object type
Payload
Rocket body
Debris
Shape & HBR
Box + 2 Pan, 17.7 m
Radar Cross Section
33.884 m², Large (>1 m²)

Expand to show TLE details & history
Last TLE update: 13 hours ago

TLE from 13 hours ago
0 STARLINK-32554
1 62136U 24222Y   26171.30573314  .00011968  00000-0  44359-3 0  9996
2 62136  43.0036 276.5897 0002953 278.6936  81.3581 15.27588348 88496
Epoch: 2026-06-20T07:20Z
TLE epoch observation values (Epoch: 2026-06-20T07:20:15.343Z)
Latitude
-0.00002°
Longitude
-101.99651°
Altitude
482.496 km
Speed
7.626 km/s
True Right ascension
18h 26m 21s
True Declination
0° 00' 00"
Sunlit
Object was in full shadow at epoch
Visualization orbit readout
Latitude
Unknown
Longitude
Unknown
Altitude
Unknown
Speed
Unknown
Apparent Right ascension
Unknown
Apparent Declination
Unknown
Sunlit
N/A
Visualization observer readout
Local Sidereal Time
07:12:24
Azimuth
Unknown
Elevation
Unknown
Doppler factor
Unknown
Orbital elements
Apogee altitude
486.995 km
Perigee altitude
482.942 km
Semi-major axis
6,863.106 km
Eccentricity
0.0003
Inclination
43.0036°
RAAN
276.5897°
Arg. of periapsis
278.6936°
True anomaly
81.39156°
Mean anomaly
81.3581°
Eccentric anomaly
81.37483°
Mean motion
3.81735 °/min
Orbital period
94.31 mins
BSTAR
0.00044359
Loading maneuver chart data...
Computing Atmospheric mass density...
Loading historical data...
Loading historical data...
Loading historical data...
Loading historical data...
Loading historical data...
Loading historical data...
Loading historical data...

Documentation

Showing up to 5 results
|